LRTM Weather Reports


Display with metric or nautical units.
time (UTC)temp
F
wind
direction
speed
MPH
gust
MPH
rain 1hr
in
rain 24hr
in
rain mn
in
humidity
%
barometer
mb
20260507161826 72 290 3.0 0.0 0.00 0.00 0.00 53 1013.0
20260507160326 72 290 3.0 0.0 0.00 0.00 0.00 53 1013.0
20260507154826 73 280 6.0 0.0 0.00 0.00 0.00 47 1013.0
20260507153326 73 280 6.0 0.0 0.00 0.00 0.00 47 1013.0
20260507151826 72 270 8.0 0.0 0.00 0.00 0.00 50 1013.0
20260507150326 72 270 8.0 0.0 0.00 0.00 0.00 50 1013.0
20260507144826 72 250 14.0 0.0 0.00 0.00 0.00 50 1013.0
20260507143328 72 250 14.0 0.0 0.00 0.00 0.00 50 1013.0
20260507141826 73 240 17.0 0.0 0.00 0.00 0.00 50 1013.0
20260507140326 73 240 17.0 0.0 0.00 0.00 0.00 50 1013.0
20260507134827 75 250 8.0 0.0 0.00 0.00 0.00 50 1013.0
20260507133326 75 250 8.0 0.0 0.00 0.00 0.00 50 1013.0
20260507131823 73 320 7.0 0.0 0.00 0.00 0.00 44 1012.0
20260507130326 73 320 7.0 0.0 0.00 0.00 0.00 44 1012.0
20260507123404 79 3.0 0.0 0.00 0.00 0.00 34 1013.0
20260507121826 79 3.0 0.0 0.00 0.00 0.00 37 1013.0
20260507120326 79 3.0 0.0 0.00 0.00 0.00 37 1013.0
20260507114826 81 3.0 0.0 0.00 0.00 0.00 32 1013.0
20260507113344 81 280 5.0 0.0 0.00 0.00 0.00 32 1013.0
20260507111826 81 280 5.0 0.0 0.00 0.00 0.00 32 1013.0
20260507110326 81 280 5.0 0.0 0.00 0.00 0.00 32 1013.0
20260507104826 79 2.0 0.0 0.00 0.00 0.00 37 1014.0
20260507103326 79 2.0 0.0 0.00 0.00 0.00 37 1014.0
20260507101826 77 240 6.0 0.0 0.00 0.00 0.00 39 1014.0
20260507100327 77 240 6.0 0.0 0.00 0.00 0.00 39 1014.0
20260507094826 77 5.0 0.0 0.00 0.00 0.00 36 1014.0
20260507093327 77 5.0 0.0 0.00 0.00 0.00 36 1014.0
20260507091828 75 3.0 0.0 0.00 0.00 0.00 41 1014.0
20260507090326 75 3.0 0.0 0.00 0.00 0.00 41 1014.0
20260507084826 75 3.0 0.0 0.00 0.00 0.00 47 1014.0
20260507083327 75 3.0 0.0 0.00 0.00 0.00 47 1014.0
20260507081826 70 100 5.0 0.0 0.00 0.00 0.00 53 1014.0
20260507080327 70 100 5.0 0.0 0.00 0.00 0.00 53 1014.0
20260507074827 72 110 7.0 0.0 0.00 0.00 0.00 47 1014.0
20260507073326 72 110 7.0 0.0 0.00 0.00 0.00 47 1014.0
20260507071826 68 3.0 0.0 0.00 0.00 0.00 56 1015.0
20260507070326 68 3.0 0.0 0.00 0.00 0.00 56 1015.0
20260507064826 64 60 3.0 0.0 0.00 0.00 0.00 60 1015.0
20260507063326 64 60 3.0 0.0 0.00 0.00 0.00 60 1015.0
20260507061836 61 80 5.0 0.0 0.00 0.00 0.00 68 1015.0
20260507060326 61 80 5.0 0.0 0.00 0.00 0.00 68 1015.0
20260507054826 59 60 7.0 0.0 0.00 0.00 0.00 68 1015.0
20260507053333 59 60 7.0 0.0 0.00 0.00 0.00 68 1015.0
20260507051827 54 80 7.0 0.0 0.00 0.00 0.00 77 1015.0
20260507050326 54 80 7.0 0.0 0.00 0.00 0.00 77 1015.0
20260507044823 54 90 7.0 0.0 0.00 0.00 0.00 77 1014.0
20260507043326 54 90 7.0 0.0 0.00 0.00 0.00 77 1014.0
20260507041826 52 100 7.0 0.0 0.00 0.00 0.00 82 1014.0
20260507040326 52 100 7.0 0.0 0.00 0.00 0.00 82 1014.0
20260507034823 52 100 7.0 0.0 0.00 0.00 0.00 77 1014.0
20260507033325 52 100 7.0 0.0 0.00 0.00 0.00 77 1014.0
20260507031826 50 90 7.0 0.0 0.00 0.00 0.00 82 1014.0
20260507030326 50 90 7.0 0.0 0.00 0.00 0.00 82 1014.0
20260507024826 50 90 7.0 0.0 0.00 0.00 0.00 82 1014.0
20260507023326 50 90 7.0 0.0 0.00 0.00 0.00 82 1014.0
20260507021826 52 90 6.0 0.0 0.00 0.00 0.00 82 1014.0
20260507020326 52 90 6.0 0.0 0.00 0.00 0.00 82 1014.0
20260507014826 52 80 7.0 0.0 0.00 0.00 0.00 82 1014.0
20260507013325 52 80 7.0 0.0 0.00 0.00 0.00 82 1014.0
20260507011826 52 80 7.0 0.0 0.00 0.00 0.00 82 1013.0
20260507010326 52 80 7.0 0.0 0.00 0.00 0.00 82 1013.0
20260507004826 54 90 7.0 0.0 0.00 0.00 0.00 77 1013.0
20260507003326 54 90 7.0 0.0 0.00 0.00 0.00 77 1013.0
20260507001826 52 80 6.0 0.0 0.00 0.00 0.00 88 1013.0
20260507000328 52 80 6.0 0.0 0.00 0.00 0.00 88 1013.0
20260506234826 54 2.0 0.0 0.00 0.00 0.00 77 1013.0
20260506233326 54 2.0 0.0 0.00 0.00 0.00 77 1013.0
20260506231827 55 1.0 0.0 0.00 0.00 0.00 72 1013.0
20260506230326 55 1.0 0.0 0.00 0.00 0.00 72 1013.0
20260506224822 57 2.0 0.0 0.00 0.00 0.00 67 1013.0
20260506223326 57 2.0 0.0 0.00 0.00 0.00 67 1013.0
20260506221826 57 1.0 0.0 0.00 0.00 0.00 67 1013.0
20260506220325 57 1.0 0.0 0.00 0.00 0.00 67 1013.0
20260506214842 61 280 2.0 0.0 0.00 0.00 0.00 59 1013.0
20260506213326 61 280 2.0 0.0 0.00 0.00 0.00 59 1013.0
20260506211823 61 0 0.0 0.0 0.00 0.00 0.00 59 1013.0
20260506210326 61 0 0.0 0.0 0.00 0.00 0.00 59 1013.0
20260506204827 64 290 3.0 0.0 0.00 0.00 0.00 52 1012.0
20260506203326 64 290 3.0 0.0 0.00 0.00 0.00 52 1012.0
20260506201823 66 290 7.0 0.0 0.00 0.00 0.00 49 1012.0
20260506200326 66 290 7.0 0.0 0.00 0.00 0.00 49 1012.0
20260506194845 70 140 3.0 0.0 0.00 0.00 0.00 38 1012.0
20260506193350 70 140 3.0 0.0 0.00 0.00 0.00 38 1012.0
20260506191827 70 210 7.0 0.0 0.00 0.00 0.00 40 1011.0
20260506190326 70 210 7.0 0.0 0.00 0.00 0.00 40 1011.0
20260506184831 73 170 10.0 0.0 0.00 0.00 0.00 36 1011.0
20260506183326 73 170 10.0 0.0 0.00 0.00 0.00 36 1011.0
20260506181826 72 240 9.0 0.0 0.00 0.00 0.00 41 1011.0
20260506180327 72 240 9.0 0.0 0.00 0.00 0.00 41 1011.0
20260506174826 72 210 7.0 0.0 0.00 0.00 0.00 41 1011.0
20260506173326 72 210 7.0 0.0 0.00 0.00 0.00 41 1011.0
20260506171826 75 260 3.0 0.0 0.00 0.00 0.00 34 1010.0
20260506170326 75 260 3.0 0.0 0.00 0.00 0.00 34 1010.0
20260506164826 77 260 7.0 0.0 0.00 0.00 0.00 30 1010.0
20260506163326 77 260 7.0 0.0 0.00 0.00 0.00 30 1010.0